Date String (YYYY-MM-DD hh:mm:ss) UTC,Instrument flags,absolute air pressure of the measurement (hPa),sample flow rate (lpm),inlet stack bypass flow (lpm),air temperature of the measurement (°C),ambient temperature measured by the external sensor (°C),aerosol sample conditioner tube jacket temperature (°C),OPC LED temperature (°C),internal box temperature (°C),relative humidity of the measurement (%),span deviation,mass concentration of particles derived from Lorenz-Mie calculation of OPC scattering (μg/m³),mass concentration of particles derived from Lorenz-Mie calculation of OPC scattering (μg/m³),mass concentration of particles derived from Lorenz-Mie calculation of OPC scattering (μg/m³)
DateTimeUTC,F1_M11,P_M11,Q1_M11,Q2_M11,T1_M11,T2_M11,T3_M11,T4_M11,T5_M11,U1_M11,ZSPAN_M11,X0_M11,X2_M11,X1_M11
2024-05-10 04:00:00,SystemResetWarning,0837.0,5.00,000.00,025.1,023.6,000.0,033.9,026.6,022.9,0000.0,0007.74,0002.35,0001.58
2024-05-10 04:01:00,SystemResetWarning,0836.9,5.00,000.00,025.1,023.8,000.0,033.8,026.7,022.8,0000.0,0007.05,0002.28,0001.59
2024-05-10 04:02:00,SystemResetWarning,0837.0,5.00,000.00,025.2,024.0,000.0,033.8,026.8,022.8,0000.0,0007.77,0002.27,0001.59
2024-05-10 04:03:00,SystemResetWarning,0837.0,5.00,000.00,025.2,024.2,000.0,033.8,026.9,022.8,0000.0,0008.49,0002.28,0001.61
2024-05-10 04:04:00,SystemResetWarning,0837.0,5.00,000.00,025.2,024.3,000.0,033.7,026.9,022.7,0000.0,0008.78,0002.27,0001.63
2024-05-10 04:05:00,SystemResetWarning,0837.0,5.00,000.00,025.2,024.4,000.0,033.7,027.0,022.6,0000.0,0009.01,0002.30,0001.65
2024-05-10 04:06:00,SystemResetWarning,0837.0,5.00,000.00,025.3,024.5,000.0,033.7,027.0,022.6,0000.0,0008.94,0002.28,0001.67
2024-05-10 04:07:00,SystemResetWarning,0837.0,5.00,000.00,025.3,024.6,000.0,033.7,027.1,022.6,0000.0,0008.76,0002.25,0001.69
2024-05-10 04:08:00,SystemResetWarning,0837.0,5.00,000.00,025.3,024.7,000.0,033.7,027.1,022.5,0000.0,0008.41,0002.24,0001.72
2024-05-10 04:09:00,SystemResetWarning,0837.0,5.00,000.00,025.4,024.7,000.0,033.7,027.1,022.5,0000.0,0007.93,0002.26,0001.75
2024-05-10 04:10:00,SystemResetWarning,0837.0,5.00,000.00,025.4,024.8,000.0,033.7,027.2,022.5,0000.0,0007.31,0002.29,0001.76
2024-05-10 04:11:00,SystemResetWarning,0837.0,5.00,000.00,025.4,024.8,000.0,033.7,027.2,022.4,0000.0,0007.34,0002.32,0001.80
2024-05-10 04:12:00,SystemResetWarning,0836.9,5.00,000.00,025.4,024.9,000.0,033.7,027.2,022.5,0000.0,0007.29,0002.36,0001.83
2024-05-10 04:13:00,SystemResetWarning,0836.9,5.00,000.00,025.5,024.9,000.0,033.7,027.3,022.5,0000.0,0006.36,0002.37,0001.86
2024-05-10 04:14:00,SystemResetWarning,0837.0,5.00,000.00,025.5,024.9,000.0,033.7,027.3,022.4,0000.0,0004.73,0002.40,0001.89
2024-05-10 04:15:00,SystemResetWarning,0837.0,5.00,000.00,025.5,025.0,000.0,033.8,027.3,022.3,0000.0,0004.87,0002.43,0001.93
2024-05-10 04:16:00,SystemResetWarning,0836.9,5.00,000.00,025.5,025.0,000.0,033.8,027.3,022.4,0000.0,0004.39,0002.46,0001.98
2024-05-10 04:17:00,SystemResetWarning,0836.9,5.00,000.00,025.6,025.0,000.0,033.8,027.3,022.5,0000.0,0004.52,0002.53,0002.01
2024-05-10 04:18:00,SystemResetWarning,0836.9,5.00,000.00,025.6,025.1,000.0,033.8,027.4,022.4,0000.0,0004.57,0002.56,0002.05
2024-05-10 04:19:00,SystemResetWarning,0837.0,5.01,000.00,025.6,025.1,000.0,033.8,027.4,022.3,0000.0,0004.76,0002.64,0002.11
2024-05-10 04:20:00,SystemResetWarning,0837.0,5.00,000.00,025.6,025.1,000.0,033.8,027.4,022.4,0000.0,0004.91,0002.69,0002.15
2024-05-10 04:21:00,SystemResetWarning,0837.0,5.00,000.00,025.6,025.1,000.0,033.9,027.4,022.4,0000.0,0004.80,0002.71,0002.21
2024-05-10 04:22:00,SystemResetWarning,0837.0,5.00,000.00,025.7,025.1,000.0,033.9,027.5,022.2,0000.0,0005.13,0002.77,0002.26
2024-05-10 04:23:00,SystemResetWarning,0837.0,5.00,000.00,025.7,025.2,000.0,033.9,027.5,022.0,0000.0,0006.42,0002.89,0002.33
2024-05-10 04:24:00,SystemResetWarning,0837.1,4.99,000.00,025.7,025.2,000.0,033.9,027.5,022.1,0000.0,0006.87,0003.01,0002.41
2024-05-10 04:25:00,SystemResetWarning,0837.1,5.00,000.00,025.7,025.2,000.0,033.9,027.5,022.1,0000.0,0007.50,0003.06,0002.48
2024-05-10 04:26:00,SystemResetWarning,0837.1,5.00,000.00,025.7,025.2,000.0,033.9,027.5,022.1,0000.0,0007.20,0003.10,0002.53
2024-05-10 04:27:00,SystemResetWarning,0837.1,5.00,000.00,025.8,025.2,000.0,034.0,027.5,022.0,0000.0,0007.54,0003.12,0002.59
2024-05-10 04:28:00,SystemResetWarning,0837.2,5.01,000.00,025.8,025.2,000.0,034.0,027.6,021.9,0000.0,0007.46,0003.15,0002.66
2024-05-10 04:29:00,SystemResetWarning,0837.2,5.00,000.00,025.8,025.3,000.0,034.0,027.6,021.9,0000.0,0007.51,0003.18,0002.73
2024-05-10 04:30:00,SystemResetWarning,0837.2,5.00,000.00,025.8,025.3,000.0,034.0,027.6,021.9,0000.0,0007.65,0003.21,0002.78
2024-05-10 04:31:00,SystemResetWarning,0837.2,5.00,000.00,025.8,025.3,000.0,034.0,027.6,021.9,0000.0,0007.59,0003.22,0002.82
2024-05-10 04:32:00,SystemResetWarning,0837.2,5.00,000.00,025.8,025.3,000.0,034.0,027.6,021.9,0000.0,0007.64,0003.24,0002.88
2024-05-10 04:33:00,SystemResetWarning,0837.2,5.00,000.00,025.8,025.3,000.0,034.1,027.6,021.9,0000.0,0007.45,0003.26,0002.91
2024-05-10 04:34:00,SystemResetWarning,0837.2,5.00,000.00,025.9,025.3,000.0,034.1,027.6,021.9,0000.0,0006.53,0003.25,0002.92
2024-05-10 04:35:00,SystemResetWarning,0837.3,5.00,000.00,025.9,025.3,000.0,034.1,027.7,021.9,0000.0,0007.45,0003.22,0002.91
2024-05-10 04:36:00,SystemResetWarning,0837.3,5.00,000.00,025.9,025.3,000.0,034.1,027.7,021.9,0000.0,0006.77,0003.23,0002.92
2024-05-10 04:37:00,SystemResetWarning,0837.2,4.99,000.00,025.9,025.4,000.0,034.1,027.6,021.8,0000.0,0006.85,0003.25,0002.93
2024-05-10 04:38:00,SystemResetWarning,0837.2,5.00,000.00,025.9,025.4,000.0,034.1,027.7,021.8,0000.0,0006.29,0003.26,0002.92
2024-05-10 04:39:00,SystemResetWarning,0837.2,5.01,000.00,025.9,025.4,000.0,034.2,027.7,021.8,0000.0,0006.36,0003.28,0002.93
2024-05-10 04:40:00,SystemResetWarning,0837.2,5.00,000.00,025.9,025.4,000.0,034.2,027.7,021.8,0000.0,0006.32,0003.28,0002.91
2024-05-10 04:41:00,SystemResetWarning,0837.2,5.00,000.00,026.0,025.4,000.0,034.2,027.7,021.8,0000.0,0006.04,0003.27,0002.91
2024-05-10 04:42:00,SystemResetWarning,0837.2,5.00,000.00,026.0,025.4,000.0,034.2,027.7,021.8,0000.0,0006.94,0003.28,0002.91
2024-05-10 04:43:00,SystemResetWarning,0837.2,5.00,000.00,026.0,025.4,000.0,034.2,027.8,021.8,0000.0,0007.14,0003.30,0002.90
2024-05-10 04:44:00,SystemResetWarning,0837.2,4.99,000.00,026.0,025.4,000.0,034.2,027.8,021.8,0000.0,0007.06,0003.29,0002.89
2024-05-10 04:45:00,SystemResetWarning,0837.2,5.00,000.00,026.0,025.4,000.0,034.2,027.8,021.8,0000.0,0006.96,0003.27,0002.89
2024-05-10 04:46:00,SystemResetWarning,0837.2,5.00,000.00,026.0,025.5,000.0,034.2,027.8,021.7,0000.0,0007.01,0003.24,0002.88
2024-05-10 04:47:00,SystemResetWarning,0837.2,5.00,000.00,026.0,025.5,000.0,034.3,027.8,021.7,0000.0,0006.86,0003.24,0002.87
2024-05-10 04:48:00,SystemResetWarning,0837.2,5.00,000.00,026.0,025.5,000.0,034.3,027.8,021.6,0000.0,0007.64,0003.22,0002.85
2024-05-10 04:49:00,SystemResetWarning,0837.2,5.00,000.00,026.0,025.5,000.0,034.3,027.8,021.6,0000.0,0007.71,0003.20,0002.84
2024-05-10 04:50:00,SystemResetWarning,0837.2,5.01,000.00,026.1,025.5,000.0,034.3,027.8,021.5,0000.0,0007.64,0003.16,0002.80
2024-05-10 04:51:00,SystemResetWarning,0837.2,5.00,000.00,026.1,025.5,000.0,034.3,027.8,021.5,0000.0,0007.56,0003.13,0002.76
2024-05-10 04:52:00,SystemResetWarning,0837.2,5.00,000.00,026.1,025.5,000.0,034.3,027.8,021.5,0000.0,0007.55,0003.10,0002.73
2024-05-10 04:53:00,SystemResetWarning,0837.2,4.99,000.00,026.1,025.5,000.0,034.3,027.8,021.4,0000.0,0007.02,0003.04,0002.67
2024-05-10 04:54:00,SystemResetWarning,0837.2,4.99,000.00,026.1,025.5,000.0,034.3,027.9,021.4,0000.0,0006.53,0002.94,0002.63
2024-05-10 04:55:00,SystemResetWarning,0837.2,5.00,000.00,026.1,025.5,000.0,034.4,027.8,021.3,0000.0,0006.46,0002.88,0002.58
2024-05-10 04:56:00,SystemResetWarning,0837.1,5.00,000.00,026.1,025.5,000.0,034.4,027.9,021.4,0000.0,0006.46,0002.85,0002.55
2024-05-10 04:57:00,SystemResetWarning,0837.2,5.01,000.00,026.1,025.5,000.0,034.4,027.9,021.4,0000.0,0006.45,0002.80,0002.51
2024-05-10 04:58:00,SystemResetWarning,0837.1,5.01,000.00,026.1,025.5,000.0,034.4,027.9,021.4,0000.0,0005.87,0002.76,0002.45
2024-05-10 04:59:00,SystemResetWarning,0837.1,5.01,000.00,026.1,025.6,000.0,034.4,027.9,021.3,0000.0,0005.06,0002.72,0002.39
